STARLINK-1355 (45563 NORAD) Tracking and Keplerian Element Data

This shows tracking and keplerian element data for the satellite.

Feedback or suggestion? Click here.




ElementValue
Catalog45563
NameSTARLINK-1355
Epoch Orbit571
Epoch Day145.66667824
Epoch Year2020
RAAN242.1438
Inclination52.998
Eccentricity0.0001258
Argument of Perigee91.5993
Mean Anonmoly180.9619
Mean Motion15.62762691
Decay Rate0.00046884
L11 45563U 20025AJ 20145.66667824 .00046884 00000-0 51470-3 0 9999
L22 45563 52.9980 242.1438 0001258 91.5993 180.9619 15.62762691 5716

Live tracking and technical data element details for STARLINK-1355 (NORAD 45563). STARLINK-1355 can be tracked NOW for your location showing map with azimuth and elevation plus other details from your city location.

Track the satellite on the map from your city or location and see movement details for azimuth, elevation, latitude, longitude, range, height, and movement on the map or in text.







IsCatalogInMostPopularTable: catalog: 45563, numindb: 8
Update: records affected: 1



GetName: 45563 STARLINK-1355

Hit Count: updated at: Tue, 26 May 2020 03:54:13 GMT